Weather History for Jefferson, NC

Change the Weather History Date:

Friday, November 8, 2013

  Actual Average Record
Temperature  
Mean Temperature 36 °F -  
Max Temperature 43 °F 56 °F 73 °F (1986)
Min Temperature 30 °F 31 °F 14 °F (1971)
Degree Days  
Heating Degree Days 29    
Moisture  
Dew Point 17 °F    
Average Humidity 48    
Maximum Humidity 67    
Minimum Humidity 29    
Precipitation  
Precipitation 0.00 in - - ()
Sea Level Pressure  
Sea Level Pressure 30.21 in    
Wind  
Wind Speed 9 mph (NW)    
Max Wind Speed 16 mph    
Max Gust Speed 30 mph    
Visibility 10 miles    
Events      
Averages and records for this station are not official NWS values.
T = Trace of Precipitation, MM = Missing Value Source: NWS Daily Summary

Daily Weather History Graph

Daily Weather History Graph

Search for Another Location

Airport:

Trip Planner

Search our weather history database for the weather conditions in past years. The results will help you decide how hot, cold, wet, or windy it might be!

Date:

Astronomy

Nov. 08, 2013 Rise Set
Actual Time 6:56 AM EST 5:22 PM EST
Civil Twilight 6:29 AM EST 5:49 PM EST
Nautical Twilight 5:58 AM EST 6:20 PM EST
Astronomical Twilight 5:27 AM EST 6:50 PM EST
Moon 11:50 AM EST (11/8) 10:41 PM EST (11/8)
Length of Visible Light 11h 20m
Length of Day
10h 26m
Waxing Crescent, 33% of the Moon is Illuminated
Nov 8
Waxing Crescent
Nov 10
First Quarter
Nov 17
Full
Nov 25
Last Quarter
Dec 2
New

Hourly Weather History & Observations

Time (EST) Temp. Windchill Dew Point Humidity Pressure Visibility Wind Dir Wind Speed Gust Speed Precip Events Conditions
12:15 AM 33.8 °F 25.8 °F 23.9 °F 67% 30.11 in 10.0 mi NW 10.4 mph 17.3 mph N/A   Scattered Clouds
12:35 AM 33.8 °F 27.7 °F 23.2 °F 65% 30.12 in 10.0 mi NW 6.9 mph 18.4 mph N/A   Scattered Clouds
12:55 AM 33.8 °F 27.0 °F 23.0 °F 65% 30.12 in 10.0 mi NW 8.1 mph 19.6 mph N/A   Mostly Cloudy
1:15 AM 33.8 °F 27.7 °F 23.0 °F 65% 30.12 in 10.0 mi NW 6.9 mph 19.6 mph N/A   Mostly Cloudy
1:35 AM 33.8 °F 27.7 °F 22.6 °F 64% 30.13 in 10.0 mi NW 6.9 mph - N/A   Overcast
1:55 AM 33.4 °F 29.1 °F 22.6 °F 65% 30.13 in 10.0 mi WNW 4.6 mph - N/A   Overcast
2:15 AM 33.3 °F 25.1 °F 22.5 °F 65% 30.13 in 10.0 mi NNW 10.4 mph 25.3 mph N/A   Mostly Cloudy
2:35 AM 33.3 °F 23.2 °F 22.1 °F 64% 30.13 in 10.0 mi NW 15.0 mph 24.2 mph N/A   Scattered Clouds
2:55 AM 33.1 °F 23.9 °F 21.7 °F 63% 30.13 in 10.0 mi NW 12.7 mph 29.9 mph N/A   Clear
3:15 AM 32.7 °F 22.1 °F 21.0 °F 62% 30.13 in 10.0 mi NW 16.1 mph 24.2 mph N/A   Clear
3:35 AM 32.9 °F 22.8 °F 20.1 °F 59% 30.13 in 10.0 mi NW 15.0 mph 21.9 mph N/A   Clear
3:55 AM 32.9 °F 22.4 °F 19.9 °F 59% 30.13 in 10.0 mi NW 16.1 mph 26.5 mph N/A   Clear
4:15 AM 32.9 °F 23.2 °F 19.9 °F 59% 30.14 in 10.0 mi NW 13.8 mph 23.0 mph N/A   Clear
4:35 AM 32.7 °F 23.0 °F 19.8 °F 59% 30.14 in 10.0 mi NW 13.8 mph 20.7 mph N/A   Clear
4:55 AM 32.7 °F 25.7 °F 19.8 °F 59% 30.15 in 10.0 mi NW 8.1 mph 21.9 mph N/A   Clear
5:15 AM 32.9 °F 24.1 °F 19.9 °F 59% 30.15 in 10.0 mi NW 11.5 mph 25.3 mph N/A   Clear
5:35 AM 32.9 °F 24.1 °F 20.1 °F 59% 30.15 in 10.0 mi WNW 11.5 mph 27.6 mph N/A   Clear
5:55 AM 32.7 °F 23.9 °F 20.3 °F 60% 30.15 in 10.0 mi NW 11.5 mph 21.9 mph N/A   Clear
6:15 AM 32.9 °F 24.1 °F 20.8 °F 61% 30.15 in 10.0 mi NNW 11.5 mph 28.8 mph N/A   Clear
6:35 AM 32.9 °F 23.7 °F 21.2 °F 62% 30.16 in 10.0 mi NNW 12.7 mph 26.5 mph N/A   Clear
6:55 AM 32.9 °F 24.7 °F 21.2 °F 62% 30.17 in 10.0 mi NNW 10.4 mph 19.6 mph N/A   Clear
7:15 AM 32.9 °F 25.3 °F 20.8 °F 61% 30.17 in 10.0 mi NW 9.2 mph 17.3 mph N/A   Clear
7:35 AM 33.3 °F 25.1 °F 19.9 °F 58% 30.17 in 10.0 mi NW 10.4 mph 19.6 mph N/A   Clear
7:55 AM 33.8 °F 25.8 °F 20.3 °F 58% 30.18 in 10.0 mi NW 10.4 mph 25.3 mph N/A   Clear
8:15 AM 34.2 °F 27.5 °F 19.4 °F 55% 30.20 in 10.0 mi NW 8.1 mph 27.6 mph N/A   Clear
8:35 AM 35.1 °F 28.6 °F 16.9 °F 48% 30.21 in 10.0 mi WNW 8.1 mph 21.9 mph N/A   Clear
8:55 AM 35.4 °F 27.8 °F 17.4 °F 48% 30.22 in 10.0 mi WNW 10.4 mph 16.1 mph N/A   Clear
9:15 AM 35.6 °F 25.9 °F 17.1 °F 47% 30.21 in 10.0 mi NNW 16.1 mph 24.2 mph N/A   Clear
9:35 AM 36.5 °F 28.2 °F 15.1 °F 42% 30.23 in 10.0 mi NW 12.7 mph 29.9 mph N/A   Clear
9:55 AM 36.9 °F 28.7 °F 14.0 °F 39% 30.24 in 10.0 mi NW 12.7 mph 29.9 mph N/A   Clear
10:15 AM 37.6 °F 30.5 °F 15.6 °F 41% 30.24 in 10.0 mi NW 10.4 mph 21.9 mph N/A   Clear
10:35 AM 37.6 °F 30.0 °F 14.7 °F 39% 30.24 in 10.0 mi NW 11.5 mph 27.6 mph N/A   Clear
10:55 AM 38.1 °F 29.8 °F 16.9 °F 42% 30.25 in 10.0 mi NNW 13.8 mph 17.3 mph N/A   Clear
11:15 AM 38.8 °F 31.6 °F 16.5 °F 40% 30.25 in 10.0 mi NW 11.5 mph 24.2 mph N/A   Clear
11:35 AM 39.2 °F 33.0 °F 16.0 °F 39% 30.25 in 10.0 mi NW 9.2 mph 24.2 mph N/A   Clear
11:55 AM 40.1 °F 32.7 °F 15.3 °F 36% 30.25 in 10.0 mi NW 12.7 mph 19.6 mph N/A   Clear
12:15 PM 40.8 °F 33.7 °F 14.4 °F 34% 30.24 in 10.0 mi NNW 12.7 mph 21.9 mph N/A   Clear
12:35 PM 41.2 °F 34.1 °F 14.9 °F 34% 30.24 in 10.0 mi NW 12.7 mph 16.1 mph N/A   Clear
12:55 PM 41.0 °F 34.7 °F 14.5 °F 34% 30.24 in 10.0 mi NNW 10.4 mph 24.2 mph N/A   Clear
1:15 PM 41.7 °F 34.8 °F 14.0 °F 32% 30.23 in 10.0 mi NW 12.7 mph 20.7 mph N/A   Clear
1:35 PM 41.5 °F 35.0 °F 12.0 °F 30% 30.22 in 10.0 mi NW 11.5 mph 25.3 mph N/A   Clear
1:55 PM 42.3 °F 36.8 °F 12.6 °F 30% 30.22 in 10.0 mi NW 9.2 mph 20.7 mph N/A   Clear
2:15 PM 42.1 °F 38.4 °F 11.8 °F 29% 30.22 in 10.0 mi WNW 5.8 mph 20.7 mph N/A   Clear
2:35 PM 42.1 °F 34.9 °F 12.2 °F 30% 30.22 in 10.0 mi NNW 13.8 mph 19.6 mph N/A   Clear
2:55 PM 42.1 °F 37.7 °F 13.3 °F 31% 30.22 in 10.0 mi NW 6.9 mph - N/A   Clear
3:15 PM 42.1 °F 34.5 °F 12.7 °F 30% 30.23 in 10.0 mi WNW 15.0 mph 23.0 mph N/A   Clear
3:35 PM 42.1 °F 34.5 °F 12.6 °F 30% 30.23 in 10.0 mi WNW 15.0 mph 21.9 mph N/A   Clear
3:55 PM 41.5 °F 35.9 °F 12.6 °F 31% 30.23 in 10.0 mi NW 9.2 mph 18.4 mph N/A   Clear
4:15 PM 41.5 °F 35.4 °F 11.3 °F 29% 30.23 in 10.0 mi NW 10.4 mph 20.7 mph N/A   Clear
4:35 PM 41.2 °F 35.5 °F 10.8 °F 29% 30.23 in 10.0 mi NNW 9.2 mph - N/A   Clear
4:55 PM 40.3 °F 34.9 °F 11.1 °F 30% 30.24 in 10.0 mi NNW 8.1 mph 17.3 mph N/A   Clear
5:15 PM 39.4 °F 37.2 °F 12.0 °F 33% 30.24 in 10.0 mi NW 3.5 mph - N/A   Clear
5:35 PM 38.8 °F 33.8 °F 14.0 °F 36% 30.24 in 10.0 mi NW 6.9 mph - N/A   Clear
5:55 PM 38.3 °F 35.9 °F 15.6 °F 40% 30.24 in 10.0 mi NW 3.5 mph - N/A   Clear
6:15 PM 38.3 °F 33.9 °F 16.5 °F 41% 30.24 in 10.0 mi WNW 5.8 mph - N/A   Clear
6:35 PM 38.3 °F - 16.5 °F 41% 30.25 in 10.0 mi Calm Calm - N/A   Clear
6:55 PM 37.8 °F 35.3 °F 16.5 °F 42% 30.24 in 10.0 mi NW 3.5 mph - N/A   Clear
7:15 PM 37.8 °F - 16.5 °F 42% 30.25 in 10.0 mi Calm Calm - N/A   Clear
7:35 PM 36.7 °F - 16.7 °F 44% 30.25 in 10.0 mi Calm Calm - N/A   Clear
7:55 PM 36.9 °F 34.3 °F 16.5 °F 44% 30.25 in 10.0 mi NW 3.5 mph - N/A   Clear
8:15 PM 35.6 °F 31.7 °F 16.7 °F 46% 30.25 in 10.0 mi NW 4.6 mph - N/A   Clear
8:35 PM 35.8 °F 33.0 °F 16.7 °F 46% 30.26 in 10.0 mi NW 3.5 mph - N/A   Clear
8:55 PM 34.7 °F - 16.9 °F 48% 30.26 in 10.0 mi Calm Calm - N/A   Clear
9:15 PM 34.2 °F - 17.4 °F 50% 30.27 in 10.0 mi Calm Calm - N/A   Clear
9:35 PM 34.0 °F - 17.2 °F 50% 30.27 in 10.0 mi Calm Calm - N/A   Clear
9:55 PM 33.3 °F - 17.8 °F 53% 30.27 in 10.0 mi Calm Calm - N/A   Clear
10:15 PM 33.4 °F 30.4 °F 17.2 °F 52% 30.27 in 10.0 mi NNW 3.5 mph - N/A   Clear
10:35 PM 32.4 °F - 17.8 °F 55% 30.27 in 10.0 mi Calm Calm - N/A   Clear
10:55 PM 30.7 °F - 19.2 °F 62% 30.26 in 10.0 mi Calm Calm - N/A   Clear
11:15 PM 31.6 °F - 17.8 °F 57% 30.27 in 10.0 mi Calm Calm - N/A   Clear
11:35 PM 31.8 °F 28.5 °F 17.8 °F 56% 30.27 in 10.0 mi North 3.5 mph - N/A   Clear
11:55 PM 31.5 °F - 18.0 °F 57% 30.27 in 10.0 mi Calm Calm - N/A   Clear